This is the latest recevied weather packets stored in our database for station/object NB9X. If no packets are shown the sender has not sent any weather packets the latest 10 day(s).
| Time | Temp. | Humidity | Pressure | Rain* | Wind** | Luminosity | Snow |
|---|---|---|---|---|---|---|---|
| 1788304165 | 26.11° C | 100% | 1014.5 hPa | 0.76 mm | - | - | - |
| 1788303865 | 26.11° C | 100% | 1014.3 hPa | 0.76 mm | - | - | - |
| 1788303565 | 25.56° C | 100% | 1014.3 hPa | 0.76 mm | - | - | - |
| 1788303265 | 25.56° C | 100% | 1014.3 hPa | 0.76 mm | - | - | - |
| 1788302965 | 26.11° C | 100% | 1014.4 hPa | 0.76 mm | - | - | - |
| 1788302665 | 25.56° C | 100% | 1014.2 hPa | 0.76 mm | - | - | - |
| 1788302365 | 26.11° C | 100% | 1014.1 hPa | 0.76 mm | - | - | - |
| 1788302065 | 25.56° C | 100% | 1014.3 hPa | 0.76 mm | - | - | - |
| 1788301766 | 25.56° C | 100% | 1014.7 hPa | 0.76 mm | - | - | - |
| 1788301465 | 26.11° C | 100% | 1014.9 hPa | 0.51 mm | - | - | - |
| 1788301165 | 26.11° C | 100% | 1015 hPa | 0.51 mm | - | - | - |
| 1788300866 | 26.67° C | 100% | 1015.1 hPa | 0 mm | - | - | - |
| 1788300566 | 27.78° C | 100% | 1014.7 hPa | 0 mm | - | - | - |
| 1788300266 | 28.33° C | 100% | 1014.4 hPa | 0 mm | - | - | - |
| 1788299966 | 29.44° C | 100% | 1014.2 hPa | 0 mm | - | - | - |
| 1788299366 | 35° C | 100% | 1013.7 hPa | 0 mm | - | - | - |
| 1788299066 | 34.44° C | 100% | 1013.4 hPa | 0 mm | - | - | - |
| 1788298766 | 34.44° C | 100% | 1013.3 hPa | 0 mm | - | - | - |
| 1788298466 | 33.33° C | 100% | 1013.5 hPa | 0 mm | - | - | - |
| 1788298166 | 34.44° C | 100% | 1013.3 hPa | 0 mm | - | - | - |
| 1788297866 | 33.89° C | 100% | 1013.1 hPa | 0 mm | - | - | - |
| 1788297566 | 33.89° C | 100% | 1013.1 hPa | 0 mm | - | - | - |
| 1788297266 | 34.44° C | 100% | 1013 hPa | 0 mm | - | - | - |
| 1788296966 | 34.44° C | 100% | 1013 hPa | 0 mm | - | - | - |
| 1788296667 | 33.89° C | 100% | 1013.1 hPa | 0 mm | - | - | - |
* Rain latest hour (hover to see other rain measurements)
** Current wind speed in m/s (hover to see current wind gust speed)